Weather in Sterlibashevo

Russia / Republic of Bashkortostan     53°26′21″N   55°15′44″E
temp.,
°C
wind,
m/s
gust,
m/s
humid.,
%
clouds,
%
prec.,
mm/h
press.,
hPa
HPBL,
m
1 march, mon
mon123:00−16nw479772 0.0 1008139
02:00−18nw339892 0.0 101154
05:00−18nw229995 0.1 101323
08:00−17nw2297100 0.1 101533
11:00−14nw239298 0.1 1016234
14:00−12nnw2289100 0.1 1017337
17:00−12nw1292100 0.3 1018253
20:00−17wnw2298100 0.1 101921
2 march, tue
tue223:00−20w22100100 0.1 102020
02:00−21wsw239968 0.0 102022
05:00−22sw349941 0.0 101947
08:00−23sw479814 0.0 1017122
11:00−17ssw5109657 0.0 1015296
14:00−14ssw91494100 0.2 1012424
17:00−11ssw81593100 0.8 1009598
20:00−9ssw71593100 0.6 1007610
3 march, wed
wed323:00−6sw71592100 0.9 1004587
02:00−5sw81493100 0.5 1002582
05:00−4sw61294100 0.9 1001446
08:00−4wsw599596 0.3 1001325
11:00−3w688997 0.3 1002759
14:00−3w578899 0.1 1002730
17:00−3w468897 0.1 1002628
20:00−9w479760 0.0 1003111
4 march, thu
thu423:00−9w479566 0.1 1004103
02:00−9wnw499595 0.0 1004231
05:00−13wnw589684 0.1 1006141
08:00−14w599748 0.0 1007144
11:00−11w6109352 0.1 1008328
14:00−8wsw7119064 0.0 1008463
17:00−8sw7129164 0.1 1008497
20:00−8sw81591100 0.1 1007597
5 march, fri
fri523:00−7sw101890100 0.2 1006716
02:00−4sw101893100 0.8 1003897
05:00−2sw121991100 1.4 10011057
08:00−3sw132092100 0.6 10001066
11:00−2wsw12199298 1.1 10021083
14:00−1w10169199 0.6 10051464
17:00−4w6127994 0.7 1009645
20:00−10w479184 0.0 1012105